Total_Precipitation_Accumulation
1.59 1.43 2.42 2.63 2.40 2.15 2.03 1.99 1.98 1.98 2.01 2.01 1.77 1.50 1.33 1.22 1.11 1.04 0.93 0.90 0.95 0.92 0.88 0.85 0.87 0.84 0.79 0.78 0.75 0.80 0.91 1.02 1.06 1.06 1.12 1.21 1.13 1.16 1.43 1.79 1.95 2.23 1.87
1.31 1.42 2.47 2.66 2.35 2.01 1.87 1.90 2.00 1.98 1.96 1.88 1.77 1.55 1.39 1.21 1.09 1.03 0.90 0.83 0.81 0.80 0.75 0.81 0.91 0.92 0.92 0.95 1.00 1.03 1.04 1.02 1.12 1.20 1.37 1.44 1.32 1.31 1.37 1.69 1.81 2.12 1.97
1.34 1.46 2.11 2.64 2.37 2.07 1.90 1.94 2.06 1.98 1.98 1.84 1.78 1.58 1.41 1.20 1.11 1.04 0.94 0.88 0.87 0.80 0.74 0.80 0.98 0.97 1.00 1.04 1.09 1.19 1.17 1.13 1.21 1.36 1.77 2.40 1.81 1.47 1.49 1.59 1.71 1.66 1.81
1.26 1.33 1.85 2.67 2.35 2.20 2.09 2.14 2.07 2.02 2.05 1.83 1.68 1.55 1.42 1.29 1.24 1.19 1.25 1.25 1.08 0.91 0.83 0.84 1.01 0.99 0.94 1.02 1.13 1.13 1.13 1.17 1.34 1.41 1.81 2.42 2.23 1.62 1.64 1.73 1.83 1.62 1.70
1.25 1.38 2.15 2.72 2.38 2.25 2.21 2.17 2.02 2.07 2.13 1.91 1.66 1.47 1.34 1.35 1.51 1.54 1.48 1.34 1.12 0.93 0.85 0.85 0.95 0.99 0.94 0.93 1.05 1.09 1.14 1.22 1.34 1.33 1.76 2.32 2.56 2.09 1.71 1.72 1.79 1.64 1.68
1.46 1.49 2.17 2.72 2.50 2.31 2.25 2.15 2.04 2.04 2.12 2.03 1.73 1.49 1.37 1.38 1.43 1.43 1.42 1.31 1.12 0.94 0.82 0.89 0.97 0.98 0.97 0.97 1.01 1.07 1.12 1.18 1.11 1.31 1.77 2.15 2.48 2.06 1.59 1.57 1.76 1.74 1.78
1.39 1.48 1.91 2.45 2.37 2.20 2.14 2.09 2.12 2.08 2.06 2.04 1.77 1.57 1.52 1.45 1.37 1.36 1.34 1.26 1.03 0.91 0.83 0.93 1.01 0.99 0.97 1.02 0.99 0.97 1.04 0.94 0.84 1.18 1.60 2.01 2.06 1.89 1.65 1.70 1.89 1.86 1.98
1.38 1.37 1.60 2.11 2.25 2.13 2.10 2.01 2.06 2.09 2.08 1.98 1.63 1.49 1.44 1.46 1.42 1.32 1.27 1.23 1.06 1.04 1.00 0.96 0.94 0.97 1.01 1.02 1.00 0.99 1.00 0.78 0.64 0.92 1.32 1.82 2.07 1.98 1.78 1.74 1.90 1.98 2.12
1.53 1.47 1.56 1.84 2.02 2.30 2.31 2.15 2.13 2.12 2.10 1.96 1.63 1.49 1.42 1.37 1.23 1.17 1.15 1.09 1.08 1.12 1.03 0.92 0.88 0.88 0.94 0.99 1.00 1.02 0.97 0.77 0.69 0.90 0.96 1.57 2.02 2.03 1.86 1.80 1.86 1.96 2.17
1.60 1.56 1.51 1.63 1.70 1.87 2.05 2.22 2.24 2.18 2.10 1.98 1.69 1.54 1.48 1.31 1.13 1.07 0.98 1.02 1.06 1.13 1.17 1.05 0.98 0.98 0.98 1.06 1.07 1.02 0.95 0.73 0.69 0.77 1.04 1.40 2.03 2.06 1.87 1.85 1.85 1.86 1.99
1.49 1.41 1.35 1.39 1.53 1.68 1.89 2.07 2.23 2.17 2.09 1.96 1.72 1.62 1.53 1.23 1.06 1.00 0.93 1.15 1.12 1.14 1.20 1.21 1.23 1.20 1.08 1.04 1.09 0.97 0.73 0.69 0.87 0.96 1.12 1.51 2.13 2.20 2.03 1.90 1.90 1.84 1.76
1.49 1.33 1.17 1.19 1.29 1.41 1.54 1.96 1.99 1.73 1.65 1.55 1.70 1.59 1.41 1.35 1.20 0.84 0.91 1.16 1.28 1.30 1.24 1.20 1.28 1.13 0.87 0.75 0.82 0.75 0.59 0.68 0.83 0.91 1.07 1.72 2.18 2.19 1.95 1.84 1.90 1.79 1.62
1.32 1.23 1.13 1.09 1.05 1.04 1.17 1.42 1.59 1.61 1.63 1.51 1.46 1.39 1.35 1.22 1.02 0.84 0.90 0.91 0.95 0.99 0.91 0.94 0.92 0.76 0.69 0.73 0.73 0.61 0.56 0.65 0.78 0.91 1.16 1.82 2.29 2.27 1.94 1.79 1.80 1.71 1.63
1.13 1.13 1.07 0.96 0.89 0.81 0.84 0.91 1.03 1.20 1.33 1.35 1.18 1.06 1.10 1.13 1.02 0.85 0.86 0.87 0.87 0.89 0.99 1.00 0.99 0.90 0.85 0.83 0.77 0.77 0.76 0.80 0.83 0.94 1.25 1.69 2.27 2.36 2.21 2.10 1.98 1.88 1.76
1.06 1.06 0.98 0.84 0.80 0.76 0.76 0.77 0.74 0.96 1.15 1.25 1.24 1.07 1.00 1.01 1.02 0.96 0.82 0.85 0.79 0.82 0.89 0.94 0.95 1.00 1.07 1.02 0.97 0.98 1.01 0.96 0.86 0.85 1.07 1.48 2.09 2.62 2.77 2.70 2.37 2.17 2.02
0.88 1.00 0.95 0.87 0.88 0.80 0.71 0.70 0.70 0.80 0.94 0.98 1.12 1.13 1.05 0.97 0.93 0.96 0.93 0.95 0.94 0.90 0.89 0.88 0.87 1.00 1.07 1.10 1.06 1.01 0.98 0.88 0.86 0.94 1.12 1.23 1.38 1.89 2.67 2.90 2.73 2.51 2.33
0.79 0.81 0.78 0.78 0.83 0.81 0.79 0.74 0.75 0.87 0.91 0.92 0.98 0.97 1.03 0.94 0.88 0.93 0.95 0.98 0.98 0.98 0.95 0.96 0.97 1.05 1.08 1.17 1.19 1.03 0.96 0.91 0.86 0.91 1.01 1.13 0.97 1.07 1.70 2.41 2.69 2.56 2.52
0.74 0.71 0.72 0.65 0.73 0.84 0.92 0.92 0.97 1.01 1.01 1.06 1.00 0.94 0.94 0.89 0.87 0.96 0.99 1.01 1.06 0.98 0.95 1.05 1.11 1.20 1.23 1.28 1.29 1.11 0.91 1.00 0.94 0.93 1.06 1.10 1.08 1.01 1.19 1.50 1.85 2.13 2.54
0.74 0.74 0.75 0.72 0.77 0.87 0.93 1.04 1.12 1.17 1.23 1.33 1.27 1.22 1.16 1.05 1.05 1.15 1.19 1.19 1.20 1.21 1.13 1.04 1.09 1.23 1.38 1.38 1.20 1.11 1.01 1.04 1.06 1.01 1.19 1.21 1.19 1.18 1.23 1.16 1.23 1.49 2.02
0.80 0.79 0.82 0.86 0.90 1.04 1.20 1.39 1.57 1.65 1.78 1.93 1.86 1.72 1.52 1.35 1.31 1.45 1.44 1.33 1.39 1.50 1.56 1.37 1.42 1.37 1.33 1.40 1.24 1.19 1.17 1.11 1.10 1.16 1.21 1.34 1.45 1.30 1.30 1.23 1.16 1.03 1.34
0.80 0.79 0.78 0.83 0.90 1.01 1.23 1.52 1.93 2.15 2.25 2.21 2.20 2.10 1.86 1.64 1.64 1.84 1.84 1.78 1.77 1.79 1.75 1.68 1.83 1.77 1.50 1.41 1.62 1.61 1.45 1.26 1.20 1.19 1.25 1.49 1.59 1.51 1.54 1.46 1.35 1.19 1.09
0.67 0.70 0.83 0.85 0.90 1.00 1.25 1.53 1.86 2.18 2.23 2.22 2.22 2.17 2.04 1.89 1.85 1.90 2.13 2.24 2.20 2.35 2.33 2.12 2.25 2.28 1.89 1.65 1.94 2.28 1.98 1.75 1.32 1.23 1.36 1.42 1.51 1.60 1.65 1.51 1.37 1.27 1.25
0.58 0.55 0.67 0.80 0.95 1.21 1.51 1.78 1.93 2.14 2.20 2.23 2.19 2.19 2.21 2.13 2.02 2.07 2.20 2.36 2.37 2.46 2.61 2.66 2.56 2.66 2.48 2.05 1.92 2.25 2.19 2.02 1.81 1.45 1.38 1.46 1.61 1.67 1.71 1.69 1.52 1.27 1.26
0.48 0.47 0.54 0.67 0.93 1.30 1.64 1.86 2.08 2.42 2.46 2.34 2.32 2.27 2.28 2.28 2.24 2.33 2.37 2.46 2.47 2.48 2.60 2.70 2.62 2.76 2.87 2.48 2.14 1.93 1.78 1.78 1.94 1.77 1.54 1.48 1.63 1.66 1.65 1.68 1.70 1.54 1.37
0.48 0.50 0.55 0.73 1.01 1.32 1.53 1.78 2.12 2.33 2.41 2.48 2.38 2.35 2.33 2.36 2.35 2.40 2.47 2.63 2.63 2.61 2.57 2.77 2.82 2.88 2.80 2.73 2.58 2.40 2.23 1.99 1.68 1.82 1.87 1.71 1.60 1.49 1.53 1.67 1.82 1.77 1.59
0.47 0.55 0.67 0.86 1.04 1.29 1.49 1.74 1.93 2.13 2.25 2.34 2.39 2.32 2.29 2.36 2.44 2.30 2.22 2.39 2.47 2.50 2.48 2.65 2.79 2.90 2.86 2.89 2.82 2.51 2.48 2.38 2.05 2.02 1.88 1.74 1.77 1.58 1.49 1.56 1.61 1.62 1.63